This is the latest recevied weather packets stored in our database for station/object W1REE. If no packets are shown the sender has not sent any weather packets the latest 10 day(s).
| Time | Temp. | Humidity | Pressure | Rain* | Wind** | Luminosity | Snow |
|---|---|---|---|---|---|---|---|
| 1777857441 | 18.89° C | 21% | 1014.4 hPa | 0 mm | - | 23 W/m² | - |
| 1777857137 | 18.89° C | 22% | 1014.2 hPa | 0 mm | - | 30 W/m² | - |
| 1777856833 | 19.44° C | 21% | 1014.1 hPa | 0 mm | - | 35 W/m² | - |
| 1777856529 | 19.44° C | 18% | 1014.2 hPa | 0 mm | - | 37 W/m² | - |
| 1777856226 | 20° C | 18% | 1014 hPa | 0 mm | - | 43 W/m² | - |
| 1777855923 | 20° C | 17% | 1014.2 hPa | 0 mm | - | 47 W/m² | - |
| 1777855621 | 20° C | 17% | 1014.1 hPa | 0 mm | - | 55 W/m² | - |
| 1777855317 | 20.56° C | 15% | 1014.1 hPa | 0 mm | - | 66 W/m² | - |
| 1777855014 | 20.56° C | 15% | 1014.2 hPa | 0 mm | - | 75 W/m² | - |
| 1777854711 | 20.56° C | 15% | 1014.2 hPa | 0 mm | - | 90 W/m² | - |
| 1777854407 | 20.56° C | 15% | 1014.2 hPa | 0 mm | - | 89 W/m² | - |
| 1777854105 | 20.56° C | 16% | 1014.2 hPa | 0 mm | - | 90 W/m² | - |
| 1777853803 | 20.56° C | 16% | 1014.5 hPa | 0 mm | - | 107 W/m² | - |
| 1777853498 | 20.56° C | 16% | 1014.2 hPa | 0 mm | - | 111 W/m² | - |
| 1777853196 | 20.56° C | 16% | 1014.2 hPa | 0 mm | - | 105 W/m² | - |
| 1777852893 | 20.56° C | 15% | 1014.4 hPa | 0 mm | - | 118 W/m² | - |
| 1777852591 | 20.56° C | 16% | 1014.7 hPa | 0 mm | - | 116 W/m² | - |
| 1777852288 | 20.56° C | 15% | 1014.7 hPa | 0 mm | - | 113 W/m² | - |
| 1777851986 | 20.56° C | 16% | 1014.5 hPa | 0 mm | - | 136 W/m² | - |
| 1777851684 | 20.56° C | 17% | 1014.6 hPa | 0 mm | - | 101 W/m² | - |
| 1777851381 | 20.56° C | 16% | 1014.6 hPa | 0 mm | - | 98 W/m² | - |
| 1777851076 | 20.56° C | 16% | 1014.5 hPa | 0 mm | - | 104 W/m² | - |
| 1777850773 | 21.11° C | 16% | 1014.5 hPa | 0 mm | - | 99 W/m² | - |
| 1777850470 | 21.11° C | 14% | 1014.4 hPa | 0 mm | - | 116 W/m² | - |
| 1777850169 | 21.67° C | 16% | 1014.7 hPa | 0 mm | - | 201 W/m² | - |
* Rain latest hour (hover to see other rain measurements)
** Current wind speed in m/s (hover to see current wind gust speed)